St. David's, Bermuda

11:51 AM ADT on August 21, 2019 (GMT -0300)
Bermuda International

Weather History for TXKF - July, 2019

Change the Weather History Date:

Monday, July 22, 2019

  Actual Average Record
Temperature  
Mean Temperature 84 °F -  
Max Temperature 87 °F 83 °F 87 °F (2013)
Min Temperature 81 °F 75 °F 74 °F (2014)
Cooling Degree Days 19    
Growing Degree Days 34 (Base 50)    
Moisture  
Dew Point 76 °F    
Average Humidity 76    
Maximum Humidity 84    
Minimum Humidity 65    
Precipitation  
Precipitation 0.00 in - - ()
Sea Level Pressure  
Sea Level Pressure 30.13 in    
Wind  
Wind Speed 10 mph ()    
Max Wind Speed 15 mph    
Max Gust Speed -    
Visibility 6.9 miles    
Events Rain    
Averages and records for this station are not official NWS values.
T = Trace of Precipitation, MM = Missing Value Source: Averaged Metar Reports

Daily Weather History Graph

Daily Weather History Graph

Search for Another Location

Airport or City:

Astronomy

Jul. 22, 2019 Rise Set
Actual Time 6:26 AM ADT 8:23 PM ADT
Civil Twilight 5:59 AM ADT 8:50 PM ADT
Nautical Twilight 5:25 AM ADT 9:23 PM ADT
Astronomical Twilight 4:50 AM ADT 9:59 PM ADT
Moon 11:59 PM ADT (7/22) 11:24 AM ADT (7/22)
Length of Visible Light 14h 51m
Length of Day
13h 56m
Waning Gibbous, 73% of the Moon is Illuminated
Jul 22
Waning Gibbous
Jul 24
Last Quarter
Aug 1
New
Aug 7
First Quarter
Aug 15
Full

Hourly Weather History & Observations

Time (ADT) Temp. Heat Index Dew Point Humidity Pressure Visibility Wind Dir Wind Speed Gust Speed Precip Events Conditions
12:00 AM 82 °F - 77 °F 80% 30.13 in 9 mi West 11.5 mph - -   Partly Cloudy
12:55 AM 82.4 °F 90.9 °F 77.0 °F 84% 30.09 in 6.2 mi West 10.4 mph - N/A   Scattered Clouds
1:55 AM 82.4 °F 90.9 °F 77.0 °F 84% 30.09 in 6.2 mi SW 11.5 mph - N/A   Scattered Clouds
2:55 AM 82.4 °F 90.9 °F 77.0 °F 84% 30.09 in 6.2 mi WSW 10.4 mph - N/A   Scattered Clouds
3:00 AM 82 °F - 76 °F 78% 30.10 in 9 mi WSW 10.4 mph - -   Partly Cloudy
3:55 AM 82.4 °F 89.5 °F 75.2 °F 79% 30.09 in 6.2 mi West 11.5 mph - N/A   Scattered Clouds
4:55 AM 82.4 °F 89.5 °F 75.2 °F 79% 30.09 in 6.2 mi West 12.7 mph - N/A   Scattered Clouds
5:55 AM 82.4 °F 89.5 °F 75.2 °F 79% 30.09 in 6.2 mi West 11.5 mph - N/A   Scattered Clouds
6:00 AM 82 °F - 76 °F 76% 30.11 in 9 mi West 11.5 mph - -   Partly Cloudy
6:55 AM 82.4 °F 89.5 °F 75.2 °F 79% 30.09 in 6.2 mi West 11.5 mph - N/A   Scattered Clouds
7:55 AM 82.4 °F 89.5 °F 75.2 °F 79% 30.12 in 6.2 mi West 12.7 mph - N/A   Scattered Clouds
8:55 AM 84.2 °F 92.3 °F 75.2 °F 74% 30.12 in 6.2 mi West 12.7 mph - N/A   Scattered Clouds
9:00 AM 84 °F - 76 °F 70% 30.15 in 9 mi West 12.7 mph - -   Partly Cloudy
9:55 AM 84.2 °F 94.1 °F 77.0 °F 79% 30.12 in 6.2 mi West 10.4 mph - N/A   Scattered Clouds
10:55 AM 86.0 °F 96.9 °F 77.0 °F 74% 30.15 in 6.2 mi West 10.4 mph - N/A   Partly Cloudy
11:55 AM 86.0 °F 95.1 °F 75.2 °F 70% 30.15 in 6.2 mi West 10.4 mph - N/A   Partly Cloudy
12:00 PM 85 °F - 75 °F 65% 30.16 in 9 mi West 10.4 mph - -   Scattered Clouds
12:55 PM 86.0 °F 96.9 °F 77.0 °F 74% 30.15 in 6.2 mi West 11.5 mph - N/A   Scattered Clouds
1:55 PM 86.0 °F 96.9 °F 77.0 °F 74% 30.15 in 6.2 mi West 10.4 mph - N/A   Scattered Clouds
2:55 PM 86.0 °F 95.1 °F 75.2 °F 70% 30.12 in 6.2 mi West 11.5 mph - N/A   Partly Cloudy
3:00 PM 86 °F - 76 °F 66% 30.15 in 9 mi West 11.5 mph - -   Scattered Clouds
4:55 PM 86.0 °F 96.9 °F 77.0 °F 74% 30.12 in 6.2 mi West 15.0 mph - N/A   Scattered Clouds
5:55 PM 86.0 °F 96.9 °F 77.0 °F 74% 30.12 in 6.2 mi West 12.7 mph - N/A   Scattered Clouds
6:00 PM 86 °F - 76 °F 65% 30.14 in 9 mi West 12.7 mph - -   Partly Cloudy
6:55 PM 86.0 °F 96.9 °F 77.0 °F 74% 30.12 in 6.2 mi West 12.7 mph - N/A   Scattered Clouds
7:55 PM 84.2 °F 94.1 °F 77.0 °F 79% 30.15 in 6.2 mi West 11.5 mph - N/A   Scattered Clouds
8:55 PM 84.2 °F 94.1 °F 77.0 °F 79% 30.15 in 6.2 mi West 10.4 mph - N/A Rain Light Rain Showers
9:00 PM 84 °F - 77 °F 74% 30.16 in 9 mi West 10.4 mph - - Rain Light Rain Showers
9:55 PM 84.2 °F 92.3 °F 75.2 °F 74% 30.15 in 6.2 mi West 10.4 mph - N/A   Mostly Cloudy
10:55 PM 82.4 °F 90.9 °F 77.0 °F 84% 30.15 in 6.2 mi West 9.2 mph - N/A   Scattered Clouds
11:55 PM 82.4 °F 90.9 °F 77.0 °F 84% 30.15 in 6.2 mi WSW 6.9 mph - N/A   Mostly Cloudy